,,PA_Meas_PMT16A,,PR_Meas_QMR101_102,,RH_Meas_QMH101,,SR_Meas_QMS101,,TA_Meas_QMH101,,GenWind,,GenWind,
time,status,PA,status,PR,status,RH,status,SR,status,TA,status,DirAvg,status,SpdAvg,
2016-09-09, 00:00:04,VALID,916.885,VALID,0,VALID,69.2206,VALID,126.243,VALID,25.8628,VALID,234,VALID,0,
2016-09-09, 00:01:04,VALID,916.868,VALID,0,VALID,66.4609,VALID,141.822,VALID,25.98,VALID,233,VALID,0,
2016-09-09, 00:02:04,VALID,916.89,VALID,0,VALID,65.386,VALID,134.624,VALID,26.0776,VALID,233,VALID,0,
2016-09-09, 00:03:04,VALID,916.924,VALID,0,VALID,65.5538,VALID,138.062,VALID,26.1753,VALID,230,VALID,0,
2016-09-09, 00:04:04,VALID,916.939,VALID,0,VALID,65.165,VALID,141.822,VALID,26.1948,VALID,216,VALID,0,
2016-09-09, 00:05:04,VALID,916.936,VALID,0,VALID,64.7685,VALID,137.417,VALID,26.2144,VALID,216,VALID,0,
2016-09-09, 00:06:04,VALID,916.972,VALID,0,VALID,63.4497,VALID,134.516,VALID,26.275,VALID,216,VALID,0,
2016-09-09, 00:07:04,VALID,916.98,VALID,0,VALID,63.5336,VALID,133.012,VALID,26.3336,VALID,216,VALID,0,
2016-09-09, 00:08:04,VALID,916.969,VALID,0,VALID,61.6887,VALID,132.69,VALID,26.4117,VALID,216,VALID,0,
2016-09-09, 00:09:04,VALID,916.956,VALID,0,VALID,61.9479,VALID,128.822,VALID,26.5289,VALID,216,VALID,0,
2016-09-09, 00:10:04,VALID,916.974,VALID,0,VALID,62.4739,VALID,124.954,VALID,26.4683,VALID,216,VALID,0,
2016-09-09, 00:11:04,VALID,916.995,VALID,0,VALID,62.1918,VALID,120.979,VALID,26.4117,VALID,216,VALID,0,
2016-09-09, 00:12:04,VALID,917.051,VALID,0,VALID,64.6542,VALID,118.293,VALID,26.4508,VALID,216,VALID,0,
2016-09-09, 00:13:04,VALID,917.194,VALID,0,VALID,63.3125,VALID,113.028,VALID,26.4703,VALID,216,VALID,0,
2016-09-09, 00:14:04,VALID,917.34,VALID,0,VALID,61.8488,VALID,106.582,VALID,26.2925,VALID,252,VALID,0,
2016-09-09, 00:15:04,VALID,917.429,VALID,0,VALID,64.2197,VALID,100.995,VALID,26.1968,VALID,263,VALID,0,
2016-09-09, 00:16:04,VALID,918.161,VALID,0,VALID,64.3111,VALID,96.1598,VALID,26.0386,VALID,263,VALID,0,
2016-09-09, 00:17:04,VALID,917.18,VALID,0,VALID,67.3605,VALID,91.7547,VALID,25.9038,VALID,263,VALID,0,
2016-09-09, 00:18:04,VALID,916.944,VALID,0,VALID,68.0771,VALID,87.672,VALID,25.7476,VALID,263,VALID,0,
2016-09-09, 00:19:04,INVALID,918.997,VALID,0,VALID,67.9551,VALID,83.4818,VALID,25.6304,VALID,263,VALID,0,
2016-09-09, 00:20:04,VALID,918.457,VALID,0,VALID,68.9614,VALID,79.399,VALID,25.4741,VALID,263,VALID,0,
2016-09-09, 00:21:04,VALID,916.544,VALID,0,VALID,69.9448,VALID,75.6386,VALID,25.2593,VALID,263,VALID,0,
2016-09-09, 00:22:04,VALID,916.313,VALID,0,VALID,70.5471,VALID,72.6302,VALID,25.2007,VALID,263,VALID,0,
2016-09-09, 00:23:04,VALID,916.726,VALID,0,VALID,71.7058,VALID,70.0516,VALID,25.2007,VALID,263,VALID,0,
2016-09-09, 00:24:04,VALID,918.031,VALID,0,VALID,69.1291,VALID,67.9028,VALID,25.1617,VALID,263,VALID,0,
2016-09-09, 00:25:04,INVALID,915.93,VALID,0,VALID,72.6512,VALID,65.4317,VALID,25.064,VALID,263,VALID,0,
2016-09-09, 22:55:04,VALID,916.914,VALID,0,VALID,81.3647,VALID,49.3155,VALID,24.6149,VALID,16,VALID,0,
2016-09-09, 22:56:04,VALID,916.737,VALID,0,VALID,82.4777,VALID,49.4229,VALID,24.5564,VALID,32,VALID,0,
2016-09-09, 22:57:04,VALID,916.838,VALID,0,VALID,82.8132,VALID,49.5304,VALID,24.5954,VALID,32,VALID,0.223828,
2016-09-09, 22:58:04,VALID,917.196,VALID,0,VALID,82.836,VALID,49.3155,VALID,24.535,VALID,14,VALID,0,
2016-09-09, 22:59:04,VALID,916.688,VALID,0,VALID,83.8195,VALID,50.175,VALID,24.5759,VALID,24,VALID,0.00585938,
2016-09-09, 23:00:04,VALID,916.919,VALID,0,VALID,82.897,VALID,51.142,VALID,24.6559,VALID,43,VALID,0,
2016-09-09, 23:01:04,VALID,916.603,VALID,0,VALID,82.8818,VALID,51.8941,VALID,24.734,VALID,25,VALID,0,
2016-09-09, 23:02:04,VALID,916.695,VALID,0,VALID,82.2719,VALID,52.3238,VALID,24.7107,VALID,25,VALID,0,
2016-09-09, 23:03:04,VALID,916.782,VALID,0,VALID,82.0966,VALID,50.9271,VALID,24.6716,VALID,4,VALID,0,
2016-09-09, 23:04:04,VALID,916.648,VALID,0,VALID,83.019,VALID,50.2825,VALID,24.5155,VALID,11,VALID,1.9,
2016-09-09, 23:05:04,VALID,916.61,VALID,0,VALID,84.8791,VALID,51.2494,VALID,24.3983,VALID,32,VALID,0,
2016-09-09, 23:16:04,VALID,917.137,VALID,0,VALID,87.3491,VALID,41.3648,VALID,24.3416,VALID,16,VALID,0,
2016-09-09, 23:17:04,VALID,918.693,VALID,0,VALID,93.8214,VALID,41.9021,VALID,24.283,VALID,32,VALID,0,
2016-09-09, 23:18:04,VALID,917.52,VALID,0,VALID,99.7981,VALID,42.0095,VALID,24.3026,VALID,19,VALID,0,
2016-09-09, 23:19:04,VALID,916.82,VALID,0,VALID,100.347,VALID,40.3979,VALID,24.2245,VALID,19,VALID,0,
2016-09-09, 23:20:04,VALID,916.652,VALID,0,VALID,104,VALID,38.5714,VALID,24.2049,INVALID,360,VALID,0,
2016-09-09, 23:38:04,VALID,916.661,VALID,0,VALID,102.908,VALID,89.391,VALID,24.1482,VALID,30,VALID,0,
2016-09-09, 23:39:04,VALID,916.65,VALID,0,VALID,91.9155,VALID,95.8375,VALID,24.1305,VALID,16,VALID,1.68711,
2016-09-09, 23:40:04,VALID,916.681,VALID,0,VALID,94.4236,VALID,101.21,VALID,24.0701,VALID,17,VALID,1.18789,
2016-09-09, 23:41:04,VALID,916.684,VALID,0,VALID,100.385,VALID,104.863,VALID,24.0115,VALID,27,VALID,0.570313,
2016-09-09, 23:42:04,VALID,916.685,VALID,0,VALID,96.7259,VALID,105.077,VALID,24.0506,VALID,31,VALID,0.159766,
2016-09-09, 23:43:04,VALID,916.691,VALID,0,VALID,91.885,VALID,102.069,VALID,24.111,VALID,15,VALID,0.116016,
2016-09-09, 23:44:04,VALID,916.69,VALID,0,VALID,95.7577,VALID,100.028,VALID,24.1287,VALID,26,VALID,0.703906,
2016-09-09, 23:45:04,VALID,916.706,VALID,0,VALID,94.9496,VALID,102.714,VALID,24.2477,VALID,22,VALID,0,
2016-09-09, 23:46:04,VALID,916.674,VALID,0,VALID,90.0097,VALID,105.292,VALID,24.3063,VALID,21,VALID,0,
2016-09-09, 23:47:04,VALID,916.668,VALID,0,VALID,86.9832,VALID,106.044,VALID,24.2867,VALID,354,VALID,0.372656,
2016-09-09, 23:48:04,VALID,916.666,VALID,0,VALID,90.1469,VALID,105.507,VALID,24.2086,VALID,7,VALID,0.733203,
2016-09-09, 23:49:04,VALID,916.633,VALID,0,VALID,92.3958,VALID,105.722,VALID,24.2086,VALID,31,VALID,0.00195313,
2016-09-09, 23:50:04,VALID,916.664,VALID,0,VALID,90.3756,VALID,100.887,VALID,24.1482,VALID,24,VALID,1.72891,
2016-09-09, 23:51:04,VALID,916.665,VALID,0,VALID,91.824,VALID,96.3747,VALID,24.1287,VALID,19,VALID,1.22695,
2016-09-09, 23:52:04,VALID,916.692,VALID,0,VALID,91.8698,VALID,92.1845,VALID,24.111,VALID,32,VALID,0.989844,
2016-09-09, 23:53:04,VALID,916.71,VALID,0,VALID,90.8864,VALID,87.7794,VALID,24.111,VALID,12,VALID,1.76953,
2016-09-09, 23:54:04,VALID,916.72,VALID,0,VALID,93.0514,VALID,83.9115,VALID,24.0896,VALID,32,VALID,0.0796875,
2016-09-09, 23:55:04,VALID,916.752,VALID,0,VALID,93.9281,VALID,80.4734,VALID,24.0878,VALID,19,VALID,0.710156,
2016-09-09, 23:56:04,VALID,916.709,VALID,0,VALID,93.5012,VALID,77.8948,VALID,24.1287,VALID,33,VALID,0.184375,
2016-09-09, 23:57:04,VALID,916.773,VALID,0,VALID,92.2357,VALID,76.8204,VALID,24.1873,VALID,1,VALID,0,
2016-09-09, 23:58:04,VALID,916.736,VALID,0,VALID,90.2003,VALID,75.9609,VALID,24.1854,VALID,32,VALID,1.25234,
2016-09-09, 23:59:04,VALID,916.71,VALID,0,VALID,90.711,VALID,74.4567,VALID,24.1287,VALID,16,VALID,0.673047,
